Regional Weather Roundup
Issued by NWS Green Bay, WI

Home | Current Version | Previous Version | Graphics & Text | Print | Product List | Glossary Off
Versions: 1 2 3 4 5 6 7 8 9 10 11 12 13 14 15 16 17 18 19 20 21 22 23 24 25 26 27 28 29 30 31 32 33 34 35 36 37 38 39 40 41 42 43 44 45 46 47 48 49 50

620
ASUS43 KGRB 111211
RWRGRB

NORTH-CENTRAL AND NORTHEAST WISCONSIN REGIONAL WEATHER ROUNDUP
NATIONAL WEATHER SERVICE GREEN BAY WI
600 AM CST THU FEB 11 2016

WIZ005-009-010>012-018-019-111300-
NORTH CENTRAL WISCONSIN

CITY           SKY/WX    TMP DP  RH WIND       PRES   REMARKS
IRONWOOD       CLOUDY     3   1  92 W10       30.17S WCI -12
MANITOWISH WTR FLURRIES  -1  -4  87 CALM      30.16R
ARBOR VITAE    CLOUDY     2  -2  82 CALM      30.15S
EAGLE RIVER    FLURRIES  -1  -5  80 W3        30.13S
LAND O LAKES   CLOUDY     7   1  79 W5        30.13S WCI  -2
RHINELANDER    CLOUDY    -2  -6  83 W6        30.15R WCI -14
PHILLIPS       CLOUDY   -12 -15  83 CALM      30.20S
ANTIGO         MOCLDY    -2  -6  84 NW9       30.16S WCI -18
TOMAHAWK       PTCLDY    -5  -9  84 W3        30.19S
MERRILL        CLEAR     -8 -12  83 CALM      30.21S
$$

WIZ013-073-111300-
NORTHEAST WISCONSIN

CITY           SKY/WX    TMP DP  RH WIND       PRES   REMARKS
IRON MOUNTAIN  MIX PCPN   6  -4  63 NW9       30.15R WCI  -8
MARINETTE      CLEAR      3  -2  78 NW6       30.20S WCI  -8
OCONTO         CLEAR      0  -5  80 W5        30.23R WCI -10
$$

WIZ017-030-035>037-045-111300-
CENTRAL WISCONSIN

CITY           SKY/WX    TMP DP  RH WIND       PRES   REMARKS
MEDFORD        CLOUDY   -10 -13  84 NW3       30.20S
WAUSAU         CLEAR     -1  -6  79 NW8       30.21R WCI -15
MOSINEE        CLEAR     -4  -8  84 CALM      30.22R
MARSHFIELD     CLOUDY    -6 -12  75 W5        30.22R WCI -17
WISC RAPIDS    CLOUDY    -7 -13  75 CALM      30.27R
STEVENS POINT  CLOUDY    -4  -8  82 CALM      30.24S
WAUPACA        CLEAR      1  -5  73 W6        30.26R WCI -10
SHAWANO        CLEAR      1  -4  77 W8        30.24R WCI -13
CLINTONVILLE   CLEAR      0  -6  78 NW7       30.24R WCI -13
WAUTOMA        CLOUDY     0  -6  75 N6        30.27R WCI -11
$$

WIZ038-039-048-051-111300-
FOX VALLEY

CITY           SKY/WX    TMP DP  RH WIND       PRES   REMARKS
NWS GREEN BAY  CLEAR     -4  -8  83 W9        30.24R WCI -20
APPLETON       CLEAR     -2  -9  71 W12       30.21R WCI -20
OSHKOSH        CLEAR     -1  -8  72 W8        30.24R WCI -15
FOND DU LAC    CLEAR      2  -6  69 W10       30.24R WCI -14
$$

WIZ022-050-052-111300-
EAST CENTRAL WISCONSIN

CITY           SKY/WX    TMP DP  RH WIND       PRES   REMARKS
EPHRAIM        FAIR       7  -1  69 NW9       30.18R WCI  -7
STURGEON BAY   CLEAR      3  -6  66 NW8       30.22R WCI -10
MANITOWOC      CLEAR      2  -4  76 W9        30.24R WCI -13
SHEBOYGAN      CLEAR      2  -6  69 W10       30.23R WCI -14
$$

LMZ563-521-522-541>543-111300-
LAKESHORE

STATION/POSITION TIME  TEMP    WIND        PRES    VSBY  WAVE
                       AIR SEA DIR/SP/G                  HT/PER
                 (UTC) (F)     (DEG/KT/KT) (MB)    (MI)  (FT/S)
SHEBOYGAN LKSHOR 1200    5     280/ 13/ 15 1025.6R
KEWAUNEE LKSHORE 1100    3     300/  6/ 10 1022.1
CHAMBERS ISLAND  1100    8     300/  7/ 14 1022.4R
MENOMINEE LKSHOR 1100    6     270/  7     1021.5
$$




USA.gov is the U.S. government's official web portal to all federal, state and local government web resources and services.